Forside
METAR-TAF:

METAR-TAF

Lufthavne :

Taylorville Municipal Airport

Taylorville, Illinois, USA

Breddekreds: 39-32-03N, længdekreds: 089-19-40W, højde: 190 m

Aktuelle vejr

Denne rapport blev lavet for 20 minutter siden, kl. 01:15 UTC
Vind 9 kt fra vestsydvest
Temperatur 2°C
Fugtighed 80%
Tryk 1014 hPa
Sigt: 16.1 km
Brudte skyer i en højde af 2900 ft

METAR: KTAZ 210115Z AUTO 24009KT 10SM BKN029 02/M01 A2993 RMK AO2 T00181006

Tid: 19:35 (01:35 UTC)


TAF: fraværende

Vejrobservationer og prognoser fra mere end 4000 lufthavne (METAR og TAF).

De gule og røde prikker repræsenterer de meteorologiske stationer.

Flyt musen over at se navnet på stationen.

Så klik over at se vejr observationer og prognoser.

At skifte det kort: Klik på de grønne knapper med et sort kors for at zoome ind; på den grønne knap med en bindestreg for at zoome ud; eller på de grønne pile for tilstødende kort.


METAR-TAF: